CTN8A LDZA-LDDU

Flight info

Callsign CTN8A
Flight time 0h 42m
Altitude 33000
Route NIVES DCT UNIPA DCT SIPAL
Aircraft A319/M-SDE2FGIJ1RWY/LB1

Departure

Time 2026-05-05 12:49
Airport Zagreb Franjo Tuđman International Airport (LDZA)

Arrival

Time 2026-05-05 13:31
Airport Dubrovnik Ruđer Bošković Airport (LDDU)
Time Latitude Longitude Altitude Speed Heading
2026-05-05 12:10 45.74008 16.07598 362 ft 0 kts 136°
2026-05-05 12:40 45.74018 16.07585 363 ft 4 kts 138°
2026-05-05 12:41 45.74039 16.07560 361 ft 4 kts 141°
2026-05-05 12:41 45.74057 16.07537 366 ft 2 kts 136°
2026-05-05 12:41 45.74076 16.07519 365 ft 4 kts 174°
2026-05-05 12:41 45.74097 16.07527 364 ft 3 kts 226°
2026-05-05 12:42 45.74110 16.07546 360 ft 0 kts 226°
2026-05-05 12:44 45.74102 16.07534 360 ft 4 kts 226°
2026-05-05 12:44 45.74071 16.07487 362 ft 9 kts 227°
2026-05-05 12:44 45.74071 16.07402 361 ft 10 kts 306°
2026-05-05 12:44 45.74124 16.07327 359 ft 11 kts 316°
2026-05-05 12:45 45.74184 16.07245 359 ft 13 kts 317°
2026-05-05 12:45 45.74245 16.07208 359 ft 10 kts 20°
2026-05-05 12:45 45.74299 16.07281 359 ft 11 kts 47°
2026-05-05 12:45 45.74355 16.07367 359 ft 12 kts 46°
2026-05-05 12:46 45.74416 16.07459 362 ft 13 kts 46°
2026-05-05 12:46 45.74482 16.07559 359 ft 14 kts 46°
2026-05-05 12:46 45.74552 16.07666 359 ft 15 kts 46°
2026-05-05 12:46 45.74626 16.07778 362 ft 16 kts 46°
2026-05-05 12:47 45.74705 16.07897 359 ft 17 kts 46°
2026-05-05 12:47 45.74788 16.08023 359 ft 18 kts 46°
2026-05-05 12:47 45.74854 16.08073 358 ft 10 kts 334°
2026-05-05 12:47 45.74907 16.08003 358 ft 11 kts 317°
2026-05-05 12:48 45.74960 16.07927 358 ft 9 kts 301°
2026-05-05 12:48 45.74934 16.07852 358 ft 10 kts 226°
2026-05-05 12:48 45.74787 16.07630 358 ft 69 kts 227°
2026-05-05 12:48 45.74280 16.06858 360 ft 141 kts 227°
2026-05-05 12:49 45.73537 16.05714 801 ft 159 kts 230°
2026-05-05 12:49 45.72796 16.04585 1745 ft 154 kts 227°
2026-05-05 12:49 45.72069 16.03484 2590 ft 150 kts 224°
2026-05-05 12:49 45.71356 16.02407 3408 ft 148 kts 222°
2026-05-05 12:50 45.70633 16.01319 3971 ft 162 kts 223°
2026-05-05 12:50 45.69797 16.00064 4349 ft 187 kts 223°
2026-05-05 12:50 45.68824 15.98603 4863 ft 213 kts 224°
2026-05-05 12:50 45.67757 15.96996 5394 ft 237 kts 224°
2026-05-05 12:51 45.66582 15.95246 6231 ft 248 kts 221°
2026-05-05 12:51 45.65064 15.94077 7168 ft 254 kts 195°
2026-05-05 12:51 45.63293 15.93756 8193 ft 259 kts 184°
2026-05-05 12:51 45.61466 15.93737 9276 ft 265 kts 182°
2026-05-05 12:52 45.59599 15.93774 10250 ft 273 kts 182°
2026-05-05 12:52 45.57622 15.93771 10685 ft 296 kts 183°
2026-05-05 12:52 45.55494 15.93696 11248 ft 312 kts 184°
2026-05-05 12:52 45.53304 15.93566 12061 ft 317 kts 185°
2026-05-05 12:53 45.51084 15.93396 12934 ft 322 kts 185°
2026-05-05 12:53 45.48831 15.93196 13779 ft 327 kts 186°
2026-05-05 12:53 45.46542 15.92983 14520 ft 332 kts 186°
2026-05-05 12:53 45.44225 15.92764 15230 ft 337 kts 186°
2026-05-05 12:54 45.39460 15.92319 16623 ft 348 kts 186°
2026-05-05 12:54 45.37029 15.92091 17336 ft 353 kts 186°
2026-05-05 12:54 45.34566 15.91862 18055 ft 357 kts 186°
2026-05-05 12:55 45.32071 15.91632 18702 ft 362 kts 186°
2026-05-05 12:55 45.29546 15.91398 19329 ft 366 kts 186°
2026-05-05 12:55 45.27015 15.91167 19995 ft 370 kts 186°
2026-05-05 12:55 45.24432 15.90957 20649 ft 375 kts 183°
2026-05-05 12:56 45.21795 15.91265 21277 ft 382 kts 172°
2026-05-05 12:56 45.19238 15.92287 21901 ft 388 kts 163°
2026-05-05 12:56 45.16661 15.93575 22538 ft 392 kts 163°
2026-05-05 12:56 45.14092 15.94842 23160 ft 395 kts 164°
2026-05-05 12:57 45.11486 15.96113 23756 ft 400 kts 164°
2026-05-05 12:57 45.08818 15.97409 24278 ft 403 kts 164°
2026-05-05 12:57 45.06181 15.98695 24781 ft 406 kts 164°
2026-05-05 12:57 45.03500 16.00007 25282 ft 408 kts 163°
2026-05-05 12:58 45.00813 16.01321 25807 ft 410 kts 163°
2026-05-05 12:58 44.98114 16.02636 26311 ft 411 kts 163°
2026-05-05 12:58 44.95402 16.03954 26812 ft 414 kts 163°
2026-05-05 12:58 44.92674 16.05282 27281 ft 416 kts 164°
2026-05-05 12:59 44.89943 16.06615 27743 ft 418 kts 163°
2026-05-05 12:59 44.87178 16.07962 28227 ft 421 kts 163°
2026-05-05 12:59 44.84383 16.09323 28709 ft 423 kts 163°
2026-05-05 13:00 44.78850 16.12010 29803 ft 422 kts 165°
2026-05-05 13:00 44.76045 16.13367 30253 ft 424 kts 165°
2026-05-05 13:01 44.67557 16.17462 31134 ft 436 kts 164°
2026-05-05 13:01 44.64692 16.18843 31454 ft 439 kts 163°
2026-05-05 13:01 44.61813 16.20231 31766 ft 442 kts 163°
2026-05-05 13:01 44.58873 16.21651 32165 ft 442 kts 164°
2026-05-05 13:02 44.55980 16.23045 32654 ft 441 kts 164°
2026-05-05 13:02 44.53080 16.24436 32970 ft 443 kts 164°
2026-05-05 13:02 44.47365 16.27172 33040 ft 422 kts 164°
2026-05-05 13:03 44.41882 16.29798 33050 ft 416 kts 164°
2026-05-05 13:03 44.36379 16.32426 33048 ft 415 kts 165°
2026-05-05 13:04 44.30938 16.35019 33053 ft 415 kts 164°
2026-05-05 13:04 44.25450 16.37625 33065 ft 415 kts 165°
2026-05-05 13:05 44.19998 16.40208 33061 ft 415 kts 165°
2026-05-05 13:05 44.14510 16.42811 33047 ft 416 kts 165°
2026-05-05 13:06 44.09037 16.45405 33051 ft 417 kts 165°
2026-05-05 13:06 44.03520 16.48021 33049 ft 419 kts 163°
2026-05-05 13:07 43.98229 16.51432 33061 ft 421 kts 158°
2026-05-05 13:07 43.92966 16.54974 33068 ft 422 kts 158°
2026-05-05 13:08 43.87650 16.58543 33069 ft 422 kts 158°
2026-05-05 13:08 43.82395 16.62053 32315 ft 421 kts 158°
2026-05-05 13:09 43.79741 16.63825 31600 ft 422 kts 158°
2026-05-05 13:09 43.77086 16.65596 30905 ft 422 kts 158°
2026-05-05 13:09 43.74461 16.67343 30149 ft 423 kts 157°
2026-05-05 13:09 43.71815 16.69099 29251 ft 425 kts 157°
2026-05-05 13:10 43.69131 16.70880 28507 ft 424 kts 157°
2026-05-05 13:10 43.66502 16.72626 27848 ft 421 kts 157°
2026-05-05 13:10 43.63855 16.74384 27204 ft 418 kts 157°
2026-05-05 13:10 43.61261 16.76106 26593 ft 415 kts 157°
2026-05-05 13:11 43.58650 16.77836 26001 ft 412 kts 157°
2026-05-05 13:11 43.56094 16.79529 25434 ft 409 kts 157°
2026-05-05 13:11 43.53550 16.81212 24883 ft 406 kts 157°
2026-05-05 13:11 43.50992 16.82901 24353 ft 404 kts 157°
2026-05-05 13:12 43.48464 16.84567 23850 ft 401 kts 157°
2026-05-05 13:12 43.45969 16.86209 23322 ft 399 kts 157°
2026-05-05 13:12 43.43461 16.87858 22804 ft 396 kts 157°
2026-05-05 13:12 43.40969 16.89496 22295 ft 392 kts 157°
2026-05-05 13:13 43.38539 16.91094 21797 ft 389 kts 157°
2026-05-05 13:13 43.36107 16.92694 21336 ft 385 kts 157°
2026-05-05 13:13 43.33719 16.94266 20847 ft 382 kts 158°
2026-05-05 13:13 43.31321 16.95841 20341 ft 379 kts 158°
2026-05-05 13:14 43.28943 16.97398 19858 ft 376 kts 158°
2026-05-05 13:14 43.26611 16.98924 19374 ft 373 kts 158°
2026-05-05 13:14 43.24263 17.00456 18894 ft 370 kts 158°
2026-05-05 13:14 43.21976 17.01947 18432 ft 367 kts 158°
2026-05-05 13:15 43.19681 17.03444 17919 ft 364 kts 158°
2026-05-05 13:15 43.17407 17.04929 17409 ft 360 kts 158°
2026-05-05 13:15 43.15229 17.06600 16931 ft 359 kts 148°
2026-05-05 13:15 43.13305 17.08772 16460 ft 359 kts 138°
2026-05-05 13:16 43.11693 17.11382 15989 ft 360 kts 128°
2026-05-05 13:16 43.10310 17.14222 15519 ft 357 kts 127°
2026-05-05 13:16 43.08940 17.17034 15073 ft 354 kts 127°
2026-05-05 13:16 43.07577 17.19810 14645 ft 350 kts 127°
2026-05-05 13:17 43.06224 17.22557 14207 ft 346 kts 127°
2026-05-05 13:17 43.04885 17.25272 13761 ft 343 kts 127°
2026-05-05 13:17 43.03556 17.27963 13271 ft 339 kts 127°
2026-05-05 13:17 43.02243 17.30617 12778 ft 336 kts 127°
2026-05-05 13:18 43.00941 17.33254 12293 ft 333 kts 127°
2026-05-05 13:18 42.99656 17.35860 11825 ft 329 kts 127°
2026-05-05 13:18 42.98385 17.38441 11348 ft 326 kts 127°
2026-05-05 13:18 42.97125 17.40999 10876 ft 323 kts 127°
2026-05-05 13:19 42.95882 17.43520 10574 ft 315 kts 126°
2026-05-05 13:19 42.94683 17.45944 10459 ft 301 kts 127°
2026-05-05 13:19 42.93533 17.48265 10309 ft 290 kts 127°
2026-05-05 13:19 42.92413 17.50523 10042 ft 285 kts 127°
2026-05-05 13:20 42.91309 17.52744 9660 ft 282 kts 128°
2026-05-05 13:20 42.90136 17.54862 9354 ft 278 kts 135°
2026-05-05 13:20 42.88801 17.56740 8957 ft 275 kts 138°
2026-05-05 13:20 42.87469 17.58596 8525 ft 275 kts 138°
2026-05-05 13:21 42.86150 17.60434 8174 ft 273 kts 137°
2026-05-05 13:21 42.84803 17.62309 7795 ft 273 kts 137°
2026-05-05 13:21 42.83475 17.64152 7404 ft 272 kts 137°
2026-05-05 13:21 42.82167 17.65966 7083 ft 271 kts 138°
2026-05-05 13:22 42.80844 17.67798 6835 ft 270 kts 137°
2026-05-05 13:22 42.79531 17.69619 6594 ft 269 kts 137°
2026-05-05 13:22 42.78221 17.71440 6346 ft 268 kts 137°
2026-05-05 13:22 42.77099 17.73485 6085 ft 272 kts 122°
2026-05-05 13:23 42.76223 17.75758 5862 ft 271 kts 120°
2026-05-05 13:23 42.75346 17.78017 5680 ft 270 kts 121°
2026-05-05 13:23 42.74751 17.79538 5567 ft 270 kts 121°
2026-05-05 13:23 42.73584 17.82514 5333 ft 268 kts 121°
2026-05-05 13:24 42.72992 17.84023 5213 ft 268 kts 121°
2026-05-05 13:24 42.72117 17.86253 5045 ft 265 kts 121°
2026-05-05 13:24 42.71269 17.88422 4913 ft 253 kts 121°
2026-05-05 13:24 42.70474 17.90461 4788 ft 240 kts 121°
2026-05-05 13:25 42.69707 17.92423 4633 ft 229 kts 121°
2026-05-05 13:25 42.68973 17.94295 4509 ft 219 kts 122°
2026-05-05 13:25 42.68263 17.96099 4373 ft 214 kts 122°
2026-05-05 13:25 42.67572 17.97856 4199 ft 209 kts 121°
2026-05-05 13:26 42.66901 17.99566 4063 ft 201 kts 121°
2026-05-05 13:26 42.66253 18.01214 3934 ft 194 kts 121°
2026-05-05 13:26 42.65628 18.02800 3819 ft 187 kts 121°
2026-05-05 13:26 42.65018 18.04336 3719 ft 182 kts 122°
2026-05-05 13:27 42.64446 18.05785 3634 ft 171 kts 122°
2026-05-05 13:27 42.63890 18.07195 3422 ft 168 kts 121°
2026-05-05 13:27 42.63345 18.08576 3211 ft 165 kts 122°
2026-05-05 13:27 42.62808 18.09938 2991 ft 163 kts 120°
2026-05-05 13:28 42.62276 18.11289 2785 ft 161 kts 121°
2026-05-05 13:28 42.61751 18.12618 2575 ft 158 kts 120°
2026-05-05 13:28 42.61237 18.13921 2365 ft 153 kts 120°
2026-05-05 13:28 42.60750 18.15161 2156 ft 145 kts 121°
2026-05-05 13:29 42.60298 18.16342 1941 ft 140 kts 120°
2026-05-05 13:29 42.59844 18.17479 1762 ft 135 kts 122°
2026-05-05 13:29 42.59390 18.18577 1596 ft 135 kts 122°
2026-05-05 13:29 42.58929 18.19709 1407 ft 138 kts 120°
2026-05-05 13:30 42.58496 18.20857 1288 ft 134 kts 121°
2026-05-05 13:30 42.58056 18.21946 1077 ft 130 kts 121°
2026-05-05 13:30 42.57640 18.23025 878 ft 128 kts 121°
2026-05-05 13:30 42.57217 18.24094 678 ft 130 kts 123°
2026-05-05 13:31 42.56787 18.25188 544 ft 131 kts 119°
2026-05-05 13:31 42.56411 18.26132 534 ft 92 kts 118°
2026-05-05 13:31 42.56227 18.26599 534 ft 20 kts 118°
2026-05-05 13:31 42.56150 18.26610 534 ft 13 kts 242°
2026-05-05 13:32 42.56124 18.26540 534 ft 5 kts 243°
2026-05-05 13:32 42.56113 18.26511 534 ft 2 kts 243°
2026-05-05 13:32 42.56113 18.26509 534 ft 0 kts 243°
2026-05-05 13:32 42.56112 18.26507 534 ft 1 kts 243°
2026-05-05 13:33 42.56107 18.26494 534 ft 2 kts 243°
2026-05-05 13:33 42.56100 18.26471 534 ft 3 kts 253°
2026-05-05 13:33 42.56095 18.26438 534 ft 4 kts 243°
2026-05-05 13:33 42.56069 18.26415 534 ft 5 kts 206°
2026-05-05 13:34 42.56048 18.26400 534 ft 0 kts 208°